DW4238 Weather Reports


time (UTC)temp
F
wind
direction
speed
knots
gust
knots
rain 1hr
in
rain 24hr
in
rain mn
in
humidity
%
barometer
mb
20260904154608 84 140 1.7 5.2 0.00 0.04 0.04 90 1014.2
20260904154059 84 140 1.7 3.5 0.00 0.04 0.04 91 1014.2
20260904153059 83 99 2.6 5.2 0.00 0.04 0.04 92 1014.2
20260904152604 83 82 3.5 4.3 0.00 0.04 0.04 92 1014.2
20260904151623 82 110 0.0 0.9 0.00 0.04 0.04 93 1014.1
20260904151114 82 89 0.0 2.6 0.00 0.04 0.04 93 1014.2
20260904150625 82 94 0.0 2.6 0.00 0.04 0.04 93 1014.1
20260904150046 82 119 0.0 0.0 0.00 0.04 0.04 93 1014.1
20260904145601 81 120 0.0 1.7 0.00 0.04 0.04 93 1014.1
20260904144603 81 111 0.0 2.6 0.00 0.04 0.04 94 1014.0
20260904144107 81 109 0.9 3.5 0.00 0.04 0.04 94 1014.0
20260904143619 81 140 1.7 3.5 0.00 0.04 0.04 94 1014.0
20260904143047 81 116 0.0 2.6 0.00 0.04 0.04 94 1013.9
20260904142552 81 120 0.0 2.6 0.00 0.04 0.04 94 1013.9
20260904141621 81 132 0.0 3.5 0.00 0.04 0.04 94 1013.8
20260904141125 81 133 1.7 4.3 0.00 0.04 0.04 94 1013.8
20260904140613 81 132 0.0 0.0 0.00 0.04 0.04 94 1013.7
20260904140038 81 134 0.0 0.0 0.00 0.04 0.04 94 1013.7
20260904135550 81 134 0.0 2.6 0.00 0.04 0.04 94 1013.6
20260904134612 80 134 2.6 3.5 0.00 0.04 0.04 95 1013.4
20260904134103 80 117 0.0 0.0 0.00 0.04 0.04 95 1013.4
20260904133125 80 115 0.0 0.0 0.00 0.04 0.04 94 1013.2
20260904132541 80 113 0.0 0.0 0.00 0.04 0.04 94 1013.3
20260904132143 80 111 0.0 0.9 0.00 0.04 0.04 94 1013.3
20260904131554 80 111 0.0 2.6 0.00 0.04 0.04 94 1013.3
20260904131106 80 98 0.0 3.5 0.00 0.04 0.04 94 1013.3
20260904130128 80 105 0.0 0.0 0.00 0.04 0.04 94 1013.2
20260904125634 80 104 0.0 0.0 0.00 0.04 0.04 94 1013.1
20260904124638 80 103 0.0 0.0 0.00 0.04 0.04 94 1013.0
20260904124100 80 101 0.0 0.0 0.00 0.04 0.04 94 1013.0
20260904123128 80 98 0.0 0.0 0.00 0.04 0.04 94 1012.9
20260904122607 80 94 0.0 0.0 0.00 0.04 0.04 94 1012.8
20260904122119 80 93 0.0 0.0 0.00 0.04 0.04 94 1012.8
20260904121046 80 90 1.7 3.5 0.00 0.04 0.04 94 1012.6
20260904120108 80 90 0.0 0.9 0.00 0.04 0.04 94 1012.5
20260904115621 80 140 0.0 0.0 0.00 0.04 0.04 94 1012.5
20260904114620 80 140 0.0 0.0 0.00 0.04 0.04 94 1012.3
20260904114034 80 140 0.0 0.0 0.00 0.04 0.04 94 1012.3
20260904113535 80 141 0.0 0.0 0.00 0.04 0.04 94 1012.3
20260904112641 80 140 0.0 0.0 0.00 0.04 0.04 94 1012.2
20260904111601 80 138 0.0 0.0 0.00 0.04 0.04 93 1012.3
20260904111051 80 137 0.0 0.0 0.00 0.04 0.04 93 1012.3
20260904110051 80 137 0.0 0.0 0.00 0.04 0.04 93 1012.3
20260904105603 80 137 0.0 0.0 0.00 0.04 0.04 93 1012.3
20260904104626 80 137 0.0 0.0 0.01 0.04 0.04 93 1012.2
20260904104138 80 137 0.0 0.0 0.01 0.04 0.04 93 1012.2
20260904103622 80 138 0.0 0.0 0.02 0.04 0.04 93 1012.1
20260904103054 80 138 0.0 0.0 0.02 0.04 0.04 93 1012.1
20260904102536 80 138 0.0 0.0 0.03 0.04 0.04 93 1012.1
20260904102150 80 137 0.0 0.0 0.03 0.04 0.04 93 1012.1
20260904101555 80 137 0.0 0.0 0.03 0.04 0.04 93 1012.0
20260904101100 80 137 0.0 0.0 0.03 0.04 0.04 93 1012.0
20260904100607 80 136 0.0 2.6 0.03 0.04 0.04 93 1012.0
20260904100037 80 136 0.0 2.6 0.03 0.04 0.04 93 1012.0
20260904095542 80 155 0.0 5.2 0.04 0.04 0.04 93 1012.1
20260904095154 80 155 0.9 6.1 0.04 0.04 0.04 93 1012.1
20260904094553 80 153 2.6 6.1 0.03 0.03 0.03 93 1011.9
20260904094105 80 186 2.6 7.0 0.03 0.03 0.03 93 1011.9
20260904093621 80 193 3.5 8.7 0.03 0.03 0.03 93 1011.8
20260904093042 80 194 4.3 8.7 0.03 0.03 0.03 93 1011.8
20260904092555 80 208 5.2 8.7 0.02 0.02 0.02 93 1011.7
20260904091617 80 185 6.1 7.8 0.01 0.01 0.01 93 1011.8
20260904091129 80 181 5.2 7.0 0.01 0.01 0.01 93 1011.9
20260904090310 80 175 6.1 7.8 0.01 0.01 0.01 93 1011.9
20260904085611 81 159 6.1 7.8 0.01 0.01 0.01 93 1011.8
20260904084633 81 153 5.2 7.0 0.00 0.00 0.00 92 1011.9
20260904084124 81 183 4.3 7.0 0.00 0.00 0.00 92 1011.9
20260904083629 81 184 6.1 7.8 0.00 0.00 0.00 92 1011.9
20260904083055 81 190 6.1 7.8 0.00 0.00 0.00 92 1011.8
20260904082554 81 198 5.2 8.7 0.00 0.00 0.00 92 1011.9
20260904081624 81 194 6.1 7.8 0.00 0.00 0.00 92 1011.9
20260904081106 81 178 5.2 7.8 0.00 0.00 0.00 92 1011.9
20260904080129 81 183 3.5 6.1 0.00 0.00 0.00 92 1012.0
20260904075540 81 184 3.5 6.1 0.00 0.00 0.00 91 1012.0
20260904074600 81 184 3.5 4.3 0.00 0.00 0.00 91 1012.2
20260904074112 81 185 0.0 3.5 0.00 0.00 0.00 91 1012.2
20260904073622 81 180 0.9 4.3 0.00 0.00 0.00 91 1012.2
20260904073048 81 182 2.6 7.8 0.00 0.00 0.00 91 1012.2
20260904072558 81 182 4.3 7.8 0.00 0.00 0.00 91 1012.3
20260904071620 81 178 5.2 8.7 0.00 0.00 0.00 91 1012.4
20260904071044 81 166 3.5 7.0 0.00 0.00 0.00 91 1012.5
20260904070045 81 163 4.3 6.1 0.00 0.00 0.00 91 1012.5
20260904065535 81 156 3.5 5.2 0.00 0.00 0.00 91 1012.5
20260904065103 81 182 0.9 6.1 0.00 0.00 0.00 91 1012.6
20260904064541 81 161 1.7 7.0 0.00 0.00 0.00 91 1012.6
20260904064049 81 133 4.3 7.0 0.00 0.00 0.00 91 1012.6
20260904063539 81 145 3.5 7.0 0.00 0.00 0.00 91 1012.6
20260904063052 81 148 3.5 7.8 0.00 0.00 0.00 91 1012.5
20260904062542 81 148 3.5 9.6 0.00 0.00 0.00 91 1012.5
20260904062036 81 147 5.2 7.8 0.00 0.00 0.00 91 1012.4
20260904061549 81 169 4.3 10.4 0.00 0.00 0.00 91 1012.4
20260904061100 81 142 7.0 10.4 0.00 0.00 0.00 91 1012.4
20260904060552 81 138 4.3 7.0 0.00 0.00 0.00 90 1012.5
20260904060049 81 140 3.5 8.7 0.00 0.00 0.00 90 1012.5
20260904055535 81 142 5.2 8.7 0.00 0.00 0.00 90 1012.5
20260904055105 82 145 5.2 9.6 0.00 0.00 0.00 90 1012.5
20260904054604 82 146 6.1 10.4 0.00 0.00 0.00 90 1012.4
20260904054053 82 148 6.1 9.6 0.00 0.00 0.00 90 1012.4
20260904053536 81 155 3.5 9.6 0.00 0.00 0.00 90 1012.3
20260904053036 81 151 4.3 7.8 0.00 0.00 0.00 90 1012.3
20260904052545 81 133 4.3 7.8 0.00 0.00 0.00 90 1012.3
20260904052053 81 142 3.5 6.1 0.00 0.00 0.00 91 1012.2
20260904051547 81 145 3.5 6.1 0.00 0.00 0.00 90 1012.1
20260904051038 81 115 3.5 6.1 0.00 0.00 0.00 90 1012.1
20260904050547 81 140 2.6 6.1 0.00 0.00 0.00 90 1012.1
20260904050128 81 131 3.5 7.8 0.00 0.00 0.00 90 1012.1
20260904045539 81 140 3.5 8.7 0.00 0.00 0.00 90 1012.1
20260904044540 81 148 4.3 7.8 0.00 0.00 0.00 90 1012.1
20260904044051 81 143 5.2 7.8 0.00 0.00 0.00 90 1012.1
20260904043111 81 136 4.3 8.7 0.00 0.00 0.00 90 1012.0
20260904042621 81 148 5.2 8.7 0.00 0.00 0.00 89 1012.1
20260904041626 81 144 5.2 9.6 0.00 0.00 0.00 89 1012.1
20260904041130 81 146 5.2 9.6 0.00 0.00 0.00 89 1012.2
20260904040642 81 149 6.1 9.6 0.00 0.00 0.00 89 1012.2
20260904040048 81 169 6.1 9.6 0.00 0.00 0.00 89 1012.1
20260904035553 81 153 6.1 10.4 0.00 0.01 0.00 89 1012.1
20260904034622 81 137 6.1 12.2 0.00 0.01 0.00 89 1012.1
20260904034046 81 149 6.1 12.2 0.00 0.01 0.00 89 1012.3
20260904033046 81 145 7.0 11.3 0.00 0.01 0.00 88 1012.1
20260904032601 81 128 7.0 11.3 0.00 0.01 0.00 88 1012.1
20260904031603 81 142 7.0 11.3 0.00 0.01 0.00 88 1011.9
20260904031108 81 150 7.8 13.0 0.00 0.01 0.00 88 1011.9
20260904030619 81 143 9.6 13.0 0.00 0.01 0.00 88 1011.9
20260904030039 81 140 8.7 13.0 0.00 0.01 0.00 87 1012.0
20260904025550 81 165 8.7 12.2 0.00 0.02 0.00 87 1012.0
20260904024613 81 137 7.8 13.9 0.00 0.02 0.00 87 1011.9
20260904024102 81 159 7.8 14.8 0.00 0.02 0.00 87 1011.9
20260904023128 81 127 7.0 11.3 0.00 0.02 0.00 87 1011.6
20260904022641 81 140 7.0 12.2 0.00 0.02 0.00 86 1011.7
20260904022125 81 150 7.8 12.2 0.00 0.02 0.00 86 1011.5
20260904021553 81 142 7.8 10.4 0.00 0.02 0.00 86 1011.5
20260904021037 81 142 7.8 10.4 0.00 0.02 0.00 86 1011.6
20260904020057 81 134 7.0 13.0 0.00 0.02 0.00 85 1011.4
20260904015609 81 155 6.1 9.6 0.00 1.20 0.00 85 1011.3
20260904014612 81 127 6.1 10.4 0.00 1.20 0.00 85 1011.3
20260904014104 81 148 4.3 10.4 0.00 1.20 0.00 84 1011.2
20260904013613 81 128 6.1 13.0 0.00 1.20 0.00 84 1011.2
20260904013038 81 123 7.0 13.0 0.00 1.20 0.00 84 1011.2
20260904012550 81 163 7.0 13.0 0.00 1.20 0.00 84 1011.1
20260904011613 81 149 7.0 12.2 0.00 1.20 0.00 84 1010.9
20260904011125 81 126 8.7 12.2 0.00 1.20 0.00 84 1010.9
20260904010629 82 144 6.1 11.3 0.00 1.20 0.00 84 1010.9
20260904010101 82 148 7.0 13.0 0.00 1.20 0.00 83 1010.9
20260904005612 82 127 8.7 13.0 0.00 1.20 0.00 82 1010.8
20260904005154 82 140 7.0 10.4 0.00 1.20 0.00 82 1010.9
20260904004605 82 101 6.1 12.2 0.00 1.20 0.00 82 1010.9
20260904004115 82 142 6.1 12.2 0.00 1.20 0.00 82 1010.9
20260904003620 82 150 7.0 11.3 0.00 1.20 0.00 82 1010.9
20260904003048 82 105 5.2 11.3 0.00 1.20 0.00 83 1010.9
20260904002552 82 134 7.0 11.3 0.00 1.20 0.00 82 1011.0
20260904001620 83 146 5.2 10.4 0.00 1.20 0.00 82 1010.9
20260904001123 83 146 6.1 11.3 0.00 1.20 0.00 82 1010.9
20260904000625 83 150 5.2 11.3 0.00 1.20 0.00 82 1010.9
20260904000056 83 148 7.0 11.3 0.00 1.20 0.00 81 1010.9
20260903235608 83 140 7.0 10.4 0.00 1.20 0.00 81 1011.0
20260903234630 83 132 6.1 11.3 0.00 1.20 0.00 81 1010.9
20260903234121 83 127 6.1 10.4 0.00 1.20 0.00 81 1011.0
20260903233103 83 148 6.1 9.6 0.00 1.20 0.00 81 1011.1
20260903232607 83 117 5.2 10.4 0.00 1.20 0.00 81 1011.1
20260903231630 83 143 6.1 13.0 0.00 1.20 0.00 82 1011.1
20260903231045 83 126 7.8 13.0 0.00 1.20 0.00 82 1011.2
20260903230107 83 142 5.2 10.4 0.00 1.20 0.00 83 1011.1
20260903225618 83 137 5.2 10.4 0.00 1.20 0.00 82 1011.1
20260903225122 83 116 5.2 10.4 0.00 1.20 0.00 83 1011.2
20260903224549 83 117 6.1 10.4 0.00 1.20 0.00 83 1011.2
20260903224100 83 111 6.1 10.4 0.00 1.20 0.00 82 1011.2
20260903223123 83 136 6.1 10.4 0.00 1.20 0.00 82 1011.1
20260903222611 83 131 4.3 10.4 0.00 1.20 0.00 82 1011.1
20260903222122 82 160 4.3 9.6 0.00 1.20 0.00 83 1011.2
20260903221542 82 125 7.0 9.6 0.00 1.20 0.00 83 1011.3
20260903221053 83 104 5.2 9.6 0.00 1.20 0.00 83 1011.3
20260903220116 83 136 4.3 12.2 0.00 1.20 0.00 83 1011.4
20260903215627 83 135 7.0 12.2 0.00 1.20 0.00 82 1011.5
20260903215130 83 170 6.1 10.4 0.00 1.20 0.00 82 1011.5
20260903214556 83 142 6.1 10.4 0.00 1.20 0.00 82 1011.6
20260903214046 83 186 7.0 9.6 0.00 1.20 0.00 82 1011.8
20260903213105 83 137 6.1 13.0 0.00 1.20 0.00 82 1011.9
20260903212608 83 139 7.0 13.0 0.00 1.20 0.00 82 1012.0
20260903212114 83 155 8.7 12.2 0.00 1.20 0.00 82 1012.0
20260903211545 83 144 7.0 13.9 0.00 1.20 0.00 82 1012.1
20260903211050 83 140 7.8 13.9 0.00 1.20 0.00 82 1012.1
20260903210122 83 115 9.6 13.9 0.00 1.20 0.00 82 1012.2
20260903205601 83 155 10.4 14.8 0.00 1.20 0.00 83 1012.3
20260903204628 83 141 6.1 13.9 0.00 1.20 0.00 82 1012.2
20260903204119 84 160 7.8 13.0 0.00 1.20 0.00 81 1012.0
20260903203630 83 156 7.8 12.2 0.00 1.20 0.00 81 1012.1
20260903203051 83 150 6.1 11.3 0.00 1.20 0.00 80 1012.0
20260903202603 82 150 7.0 9.6 0.00 1.20 0.00 79 1012.0
20260903201603 82 111 6.1 11.3 0.00 1.20 0.00 80 1012.1
20260903201108 81 146 7.8 12.2 0.00 1.20 0.00 80 1012.2
20260903200126 82 150 7.0 16.5 0.00 1.20 0.00 78 1012.4
20260903195642 82 130 10.4 16.5 0.00 1.20 0.00 77 1012.6
20260903195132 82 135 7.0 13.0 0.00 1.20 0.00 79 1012.7
20260903194552 83 136 6.1 13.0 0.00 1.20 0.00 80 1012.7
20260903194104 84 135 4.3 16.5 0.00 1.20 0.00 82 1012.6
20260903193105 85 73 10.4 18.2 0.00 1.20 0.00 82 1012.5
20260903192617 87 76 9.6 17.4 0.00 1.20 0.00 79 1012.5
20260903192122 87 75 11.3 15.6 0.00 1.20 0.00 79 1012.4
20260903191547 87 76 9.6 15.6 0.00 1.20 0.00 79 1012.4
20260903191103 88 71 11.3 15.6 0.00 1.20 0.00 79 1012.4
20260903190124 89 74 8.7 12.2 0.00 1.20 0.00 78 1012.4
20260903185629 89 51 3.5 10.4 0.00 1.20 0.00 78 1012.4
20260903185115 89 24 6.1 10.4 0.00 1.20 0.00 78 1012.3
20260903184546 89 44 5.2 10.4 0.00 1.20 0.00 78 1012.5
20260903184051 89 28 3.5 9.6 0.00 1.20 0.00 78 1012.6
20260903183120 90 59 7.8 10.4 0.00 1.20 0.00 76 1012.5
20260903182604 91 69 4.3 7.8 0.00 1.20 0.00 75 1012.4
20260903182115 90 340 2.6 7.0 0.00 1.20 0.00 72 1012.5
20260903181540 90 355 2.6 5.2 0.00 1.20 0.00 73 1012.6
20260903181154 90 287 2.6 7.0 0.00 1.20 0.00 72 1012.6
20260903180545 90 239 2.6 7.0 0.00 1.20 0.00 73 1012.9
20260903180151 90 258 2.6 5.2 0.00 1.20 0.00 76 1013.0
20260903175620 89 26 0.0 4.3 0.00 1.20 0.00 78 1013.1
20260903175133 89 26 1.7 7.0 0.00 1.20 0.00 78 1013.1
20260903174552 89 35 2.6 9.6 0.00 1.20 0.00 79 1013.2
20260903174037 89 34 3.5 7.8 0.00 1.20 0.00 79 1013.2
20260903173629 88 51 4.3 7.8 0.00 1.20 0.00 80 1013.3
20260903173055 88 59 2.6 7.0 0.00 1.20 0.00 81 1013.4
20260903172539 88 54 3.5 7.0 0.00 1.20 0.00 81 1013.6
20260903171613 88 51 0.9 7.8 0.00 1.20 0.00 81 1013.8
20260903171056 87 78 1.7 7.8 0.00 1.20 0.00 82 1013.9
20260903170054 87 71 1.7 9.6 0.00 1.20 0.00 82 1013.8
20260903165605 87 84 4.3 8.7 0.00 1.20 0.00 83 1013.7
20260903164622 87 66 6.1 8.7 0.00 1.20 0.00 82 1013.7
20260903164122 87 69 4.3 7.8 0.00 1.20 0.00 82 1013.8
20260903163632 88 76 2.6 7.0 0.00 1.20 0.00 81 1013.8
20260903163037 88 221 3.5 8.7 0.00 1.20 0.00 76 1013.7
20260903162545 88 184 6.1 12.2 0.00 1.20 0.00 76 1013.8
20260903161614 87 161 5.2 11.3 0.00 1.20 0.00 78 1013.8
20260903161119 87 215 7.0 15.6 0.00 1.20 0.00 77 1013.8
20260903160630 87 192 11.3 15.6 0.00 1.20 0.00 77 1013.6
20260903160050 87 184 7.8 11.3 0.00 1.20 0.00 78 1013.7
20260903155601 87 224 7.0 10.4 0.00 1.20 0.00 81 1013.7